This is the latest recevied weather packets stored in our database for station/object HB9KBJ-8. If no packets are shown the sender has not sent any weather packets the latest 10 day(s).
| Time | Temp. | Humidity | Pressure | Rain* | Wind** | Luminosity | Snow |
|---|---|---|---|---|---|---|---|
| 1777831336 | 15.56° C | 81% | 1014.5 hPa | 0 mm | - | 28 W/m² | - |
| 1777831051 | 15.56° C | 81% | 1014.4 hPa | 0 mm | - | 33 W/m² | - |
| 1777830749 | 16.11° C | 81% | 1014.4 hPa | 0 mm | - | 35 W/m² | - |
| 1777830445 | 16.11° C | 81% | 1014.4 hPa | 0 mm | - | 44 W/m² | - |
| 1777830157 | 16.11° C | 81% | 1014.5 hPa | 0 mm | - | 47 W/m² | - |
| 1777829846 | 16.11° C | 81% | 1014.5 hPa | 0 mm | - | 51 W/m² | - |
| 1777829544 | 15.56° C | 81% | 1014.6 hPa | 0 mm | - | 62 W/m² | - |
| 1777829239 | 16.11° C | 81% | 1014.8 hPa | 0 mm | - | 72 W/m² | - |
| 1777828936 | 15.56° C | 81% | 1014.7 hPa | 0 mm | - | 79 W/m² | - |
| 1777828633 | 15.56° C | 81% | 1014.7 hPa | 0 mm | - | 86 W/m² | - |
| 1777828345 | 15.56° C | 81% | 1014.8 hPa | 0.25 mm | - | 88 W/m² | - |
| 1777828046 | 15.56° C | 80% | 1014.8 hPa | 0.25 mm | - | 90 W/m² | - |
| 1777827741 | 15.56° C | 80% | 1014.9 hPa | 0.25 mm | - | 88 W/m² | - |
| 1777827447 | 15.56° C | 80% | 1015 hPa | 0.25 mm | - | 90 W/m² | - |
| 1777827139 | 15.56° C | 79% | 1015 hPa | 0.25 mm | - | 102 W/m² | - |
| 1777826848 | 15.56° C | 79% | 1015 hPa | 0.25 mm | - | 109 W/m² | - |
| 1777826540 | 15.56° C | 80% | 1015.1 hPa | 0.25 mm | - | 116 W/m² | - |
| 1777826237 | 15.56° C | 79% | 1015.2 hPa | 0.25 mm | - | 127 W/m² | - |
| 1777825953 | 15° C | 79% | 1015.2 hPa | 0.25 mm | - | 130 W/m² | - |
| 1777825648 | 15° C | 79% | 1015.1 hPa | 0.25 mm | - | 134 W/m² | - |
| 1777825341 | 15° C | 78% | 1015.2 hPa | 0.25 mm | - | 120 W/m² | - |
| 1777825049 | 15° C | 78% | 1015.3 hPa | 0.25 mm | - | 104 W/m² | - |
| 1777824741 | 15° C | 78% | 1015.4 hPa | 0.25 mm | - | 86 W/m² | - |
| 1777824436 | 15.56° C | 77% | 1015.5 hPa | 0 mm | - | 62 W/m² | - |
| 1777824148 | 15.56° C | 76% | 1015.6 hPa | 0 mm | - | 62 W/m² | - |
* Rain latest hour (hover to see other rain measurements)
** Current wind speed in m/s (hover to see current wind gust speed)